Theta_e
304 306 308 310 310 310 310 311 312 312 312 313 312 312 313 319 317 319 320 318 319 318 319 321 322 321 318 318 317 318 319 319 320 320 322 321 322 322 322 323 323 322 322 322 321
303 303 304 307 309 311 311 311 310 311 312 312 312 312 313 320 322 319 316 317 318 319 321 321 323 319 319 319 318 319 319 319 319 321 322 322 322 322 322 322 322 322 321 321 321
302 302 302 304 305 308 310 310 311 311 311 312 312 312 314 321 320 320 317 317 318 320 321 319 321 321 321 321 320 318 320 318 319 319 321 321 321 322 322 323 323 323 322 322 323
301 301 302 302 304 305 308 309 310 311 311 312 312 313 315 325 320 320 318 317 318 320 320 320 321 323 322 323 321 322 320 320 321 321 321 321 322 322 323 326 325 324 324 327 328
301 301 302 303 303 305 305 308 310 311 311 312 312 313 318 321 319 319 318 319 321 319 319 320 320 322 323 322 322 323 322 322 322 322 322 322 322 323 327 327 326 326 327 327 328
301 301 302 303 303 304 306 308 311 312 311 312 313 314 321 319 318 320 320 320 319 319 319 320 321 320 320 321 322 322 322 322 322 323 323 323 323 324 326 326 327 327 327 327 327
301 301 302 303 304 304 307 309 312 313 312 313 314 316 321 319 319 320 320 318 319 319 320 319 320 322 322 323 322 322 323 323 323 323 324 323 326 327 327 327 327 327 326 326 326
301 302 303 304 304 305 307 313 316 315 313 315 315 322 320 320 321 321 320 319 318 319 319 319 319 322 323 323 324 324 323 324 323 323 323 324 328 328 327 327 327 326 326 326 326
302 302 306 306 307 306 309 317 315 313 314 317 321 324 321 320 320 318 318 319 318 317 318 318 320 323 323 325 326 324 325 324 323 322 323 323 325 328 327 327 328 327 326 326 326
304 302 311 310 309 307 313 318 316 318 319 319 321 325 320 320 320 318 317 318 320 320 322 322 322 324 323 324 326 325 324 324 324 323 322 322 323 327 327 327 327 327 327 326 326
306 303 313 314 308 312 316 319 322 322 321 321 321 320 320 319 319 318 317 318 321 322 322 321 323 323 323 323 323 323 324 324 323 323 323 323 324 325 328 326 327 327 327 327 326
306 304 314 311 312 315 316 321 320 319 322 319 319 319 318 319 320 319 317 320 320 321 321 322 322 321 322 322 323 324 324 324 323 322 323 323 323 323 327 327 327 327 327 326 326
305 304 313 311 315 317 319 318 316 317 323 321 321 321 321 320 319 318 319 319 320 320 320 321 320 321 322 323 323 324 324 324 324 323 323 325 324 327 328 328 327 327 326 325 324
305 306 312 310 316 317 319 317 317 317 324 322 321 320 319 319 319 317 318 319 320 320 320 320 320 321 323 323 323 324 322 323 323 324 325 324 323 326 329 330 329 327 326 325 323
308 305 309 312 315 320 317 317 317 322 332 323 320 318 318 319 320 320 318 320 320 320 319 320 320 321 321 320 321 323 323 323 323 324 324 323 325 328 327 329 330 328 326 324 322
309 304 309 317 315 316 318 318 322 331 328 322 320 320 321 320 320 321 321 320 320 320 318 319 318 318 318 317 319 320 323 323 324 323 328 327 326 326 328 328 328 327 325 323 322
309 305 309 316 319 318 318 321 325 329 323 322 320 321 322 322 321 321 321 320 320 321 319 319 318 318 318 320 321 323 325 329 326 327 325 326 326 327 327 327 327 326 323 322 321
308 305 313 317 319 319 319 322 323 326 323 320 320 321 322 321 321 320 320 321 320 319 318 319 321 317 317 321 324 325 327 340 337 330 327 325 328 331 325 327 326 323 322 322 321
304 309 320 320 317 318 321 321 320 323 323 320 320 322 322 320 320 320 320 320 320 320 322 321 320 318 317 321 325 327 328 326 334 330 333 326 325 324 325 326 324 323 322 322 320
302 311 317 318 319 320 321 320 322 322 319 320 323 319 319 319 318 319 321 321 321 319 320 322 324 319 318 322 323 325 324 330 330 336 332 324 324 327 325 326 325 324 323 321 320
308 315 320 316 317 321 322 321 322 320 319 320 321 319 318 319 318 319 321 322 321 320 320 320 322 321 318 322 323 325 325 325 326 328 336 334 326 325 325 325 325 323 321 321 321
309 316 317 316 323 321 323 323 318 319 319 319 318 318 318 318 319 320 322 322 320 321 321 322 321 321 318 318 321 322 324 324 328 329 332 332 331 325 325 325 324 321 320 320 320
308 314 319 318 323 323 324 323 321 320 320 320 320 318 319 319 320 320 322 322 320 320 320 321 321 320 321 323 322 323 324 324 325 327 329 334 332 324 324 323 322 321 321 320 319
312 318 321 319 320 323 323 323 323 319 319 319 320 319 319 320 320 322 322 322 321 320 319 318 320 320 331 321 321 322 322 322 324 329 330 330 328 325 323 323 322 322 320 319 319
313 318 317 321 321 321 322 322 323 321 319 319 321 320 321 322 321 320 320 320 320 322 319 321 322 320 320 320 320 322 322 321 324 326 328 324 325 324 324 323 322 321 319 319 319
312 316 315 316 317 319 317 322 321 321 321 321 321 321 321 321 321 322 320 320 320 322 321 322 322 321 321 319 320 320 322 323 323 323 323 323 324 322 322 321 321 320 320 319 319
306 308 312 310 314 316 317 320 320 319 319 319 320 320 321 320 320 319 319 318 318 320 322 323 321 323 319 320 322 324 322 324 323 323 322 324 323 322 321 321 321 321 320 318 319
Wind_Speed
16 14 11 9 8 7 7 7 7 7 8 8 10 13 15 7 6 2 10 6 3 6 4 2 4 5 5 4 2 2 6 7 6 8 7 4 2 2 2 3 3 4 6 6 6
17 16 13 11 8 8 8 7 7 7 7 7 9 12 12 5 3 9 4 4 6 8 3 5 5 6 4 4 3 6 6 3 3 4 4 2 3 3 3 1 3 1 4 7 6
20 19 14 12 11 9 9 8 7 6 6 6 8 9 8 2 4 6 2 3 6 7 6 4 1 3 3 2 2 2 0 6 7 2 1 1 5 2 7 4 5 8 5 7 6
22 21 17 13 11 10 10 10 8 6 5 5 6 9 3 3 2 4 1 2 6 5 3 4 3 4 3 3 2 5 3 4 6 4 4 5 4 2 4 8 7 7 6 7 8
24 22 19 17 12 10 10 9 7 5 5 3 4 7 1 5 9 1 1 2 3 4 7 4 5 1 3 2 3 4 5 4 4 5 7 3 5 3 7 7 7 8 8 10 9
27 24 22 19 14 10 10 9 6 4 4 3 3 4 4 8 3 2 0 2 3 4 5 5 4 4 3 1 6 1 3 4 3 3 5 6 7 2 7 3 6 8 9 11 12
31 27 24 21 16 9 9 7 6 5 4 2 2 2 6 7 3 1 2 2 1 3 2 3 2 4 1 4 1 4 8 8 6 5 6 6 9 5 4 3 5 8 8 9 11
36 32 28 21 15 8 7 4 2 2 5 2 1 2 4 2 2 3 2 2 2 0 2 2 2 1 3 1 5 5 8 11 7 6 4 8 8 7 3 2 5 5 7 7 10
40 38 30 21 14 7 2 2 4 6 5 2 1 5 8 1 2 3 4 4 4 3 4 3 3 2 5 6 7 5 4 3 9 0 2 4 3 7 3 2 3 4 5 7 8
42 42 30 20 12 3 5 6 7 7 4 2 2 5 5 5 1 1 2 2 2 4 5 4 4 4 3 5 3 2 3 5 3 4 5 7 5 6 5 4 3 3 4 7 9
42 41 30 22 9 4 9 3 5 5 6 4 5 3 6 1 1 3 3 3 3 3 4 1 3 7 7 5 6 5 5 5 1 3 7 6 8 6 6 6 4 3 4 7 9
43 41 29 19 4 6 4 1 5 4 2 1 1 3 2 2 3 3 2 2 1 3 3 7 6 9 5 3 4 6 6 4 5 1 8 10 11 7 8 5 2 2 5 8 9
42 40 28 9 6 5 5 6 5 1 4 5 2 2 2 6 2 3 3 0 3 3 4 4 8 6 2 4 5 3 6 5 9 9 15 8 16 7 9 7 4 2 4 7 11
41 39 25 5 2 1 3 8 4 3 6 9 7 4 5 2 3 2 3 3 2 5 2 3 3 4 3 4 6 6 1 7 10 10 9 5 8 9 11 11 7 2 5 8 11
40 37 20 10 4 1 6 8 1 3 4 10 6 3 3 4 8 3 2 3 2 4 5 6 1 3 1 5 5 5 8 9 10 12 10 11 5 8 4 8 8 2 7 11 13
40 36 18 4 1 2 7 2 3 5 5 8 5 6 7 4 3 4 3 3 1 2 2 5 2 2 7 6 4 8 9 12 8 7 6 5 5 7 4 5 2 4 10 14 15
39 33 14 4 3 6 4 4 5 6 5 7 6 7 5 5 5 3 2 1 1 4 3 5 3 2 6 7 5 7 6 3 5 5 3 4 7 6 5 3 3 8 12 15 16
39 27 9 8 4 4 4 5 7 2 7 4 4 6 7 6 4 5 4 4 3 1 2 3 6 1 5 4 5 3 6 2 3 4 9 4 5 6 5 2 3 10 14 16 17
35 14 3 2 6 3 6 7 3 3 6 8 7 8 7 6 4 6 4 1 2 2 2 3 4 2 2 3 5 4 1 4 1 3 5 1 4 6 5 2 7 14 16 16 17
23 10 4 6 4 6 6 8 4 3 5 6 8 4 7 8 7 6 8 3 4 1 3 3 4 3 2 5 3 6 4 4 3 3 5 2 4 5 4 5 13 16 17 18 18
8 5 4 3 4 6 8 6 5 7 6 5 5 6 5 5 7 6 5 6 5 5 1 1 3 7 5 7 3 7 5 0 3 2 3 4 3 6 6 8 15 15 18 18 20
6 4 3 2 6 4 9 5 2 11 6 3 4 4 7 7 7 7 7 2 4 1 2 4 4 6 2 2 3 5 2 2 2 3 4 5 7 3 5 11 12 15 18 19 19
7 5 1 2 6 8 3 6 6 10 9 7 6 5 5 7 5 6 6 6 6 3 1 3 3 6 8 6 7 8 8 6 5 5 11 4 5 2 9 12 14 16 18 18 18
4 3 3 2 0 6 5 9 9 7 8 6 4 6 8 7 6 6 8 9 7 5 4 3 7 8 5 8 5 5 8 9 9 8 11 10 17 13 13 15 16 17 18 20 18
2 2 3 1 3 3 4 1 11 8 8 10 7 10 10 7 8 7 7 8 8 7 5 6 7 10 11 10 10 11 13 12 13 14 13 14 15 15 13 14 16 17 18 19 20
4 4 2 6 6 7 5 8 9 6 9 13 10 11 9 7 8 4 5 6 8 8 8 6 6 5 12 12 13 16 15 16 14 14 12 12 15 9 13 14 16 19 19 19 21
3 2 4 1 3 5 5 5 5 3 4 3 9 8 10 7 2 2 4 7 8 8 10 7 6 5 11 2 8 12 16 16 9 11 10 11 13 11 13 15 16 17 16 21 20
Wind_Direction
26 21 15 7 358 356 352 346 340 336 334 340 349 355 8 42 107 159 62 62 44 16 32 192 189 170 189 128 179 245 226 199 166 195 130 145 245 49 21 329 42 45 55 40 21
24 16 9 2 349 337 335 332 330 331 329 332 343 353 358 30 203 79 64 51 32 28 332 355 130 183 137 138 154 255 252 133 79 87 143 118 285 336 272 218 126 91 116 38 348
18 14 6 356 347 334 326 320 315 313 318 320 331 346 344 299 196 70 28 22 11 11 25 26 162 236 140 200 123 142 28 139 148 144 237 273 244 345 314 217 22 326 329 5 10
12 9 5 355 342 330 322 315 311 303 297 308 321 339 349 225 29 85 305 331 348 354 340 5 199 199 183 163 143 193 150 172 131 170 233 247 324 119 15 20 354 27 64 63 59
7 2 1 355 343 332 321 314 306 295 282 288 312 336 273 174 84 58 312 265 308 342 23 20 48 182 193 184 181 235 157 186 172 238 252 254 245 93 72 39 60 77 72 74 63
7 1 355 351 343 329 322 314 299 282 265 270 295 327 256 109 114 75 198 236 290 332 19 10 39 27 87 212 263 85 238 213 230 154 125 213 143 218 65 49 71 68 61 58 55
7 360 354 346 342 329 321 313 291 265 243 256 269 324 250 86 164 273 300 345 316 333 338 40 12 292 212 156 57 204 232 182 195 172 103 153 151 102 80 69 71 65 59 56 46
7 0 351 344 338 328 329 324 309 239 192 203 289 272 97 126 265 299 305 155 32 166 322 280 264 44 310 55 192 201 229 178 130 184 111 229 135 112 115 113 76 60 69 56 54
5 360 352 344 336 327 345 59 85 126 144 178 229 258 126 169 165 42 13 43 80 119 101 128 240 349 199 228 183 193 140 256 152 34 324 298 334 117 143 133 98 80 57 47 37
4 1 357 348 338 327 139 113 109 112 112 110 240 222 168 114 65 27 78 46 85 142 174 209 206 226 191 278 342 25 246 172 272 119 252 279 299 158 177 192 160 101 62 47 25
2 1 358 348 341 137 125 143 198 175 209 330 119 325 119 118 260 141 160 179 203 197 115 74 285 11 348 341 315 290 280 281 338 80 296 311 293 201 191 207 168 118 53 32 22
0 1 358 352 78 109 97 355 39 358 166 149 191 249 221 243 175 119 232 263 340 35 207 215 51 352 301 302 290 248 266 260 281 79 301 305 296 288 178 190 161 34 24 11 0
358 359 359 13 76 65 69 54 332 245 239 143 145 181 121 204 95 69 278 339 359 29 13 23 24 349 197 183 243 224 295 326 309 312 267 273 275 167 181 178 177 50 8 1 353
356 356 357 9 98 7 78 344 333 203 209 156 182 133 171 191 131 36 9 305 176 16 348 44 56 359 77 92 306 279 64 289 287 295 305 12 292 193 168 204 211 288 347 350 346
352 351 352 15 329 292 340 333 224 244 233 141 158 101 182 226 128 103 30 241 359 65 273 80 78 7 29 6 326 3 316 289 294 289 302 252 251 127 153 202 200 276 338 344 338
346 347 343 342 313 342 334 308 232 225 221 157 171 187 174 172 132 114 170 100 293 204 45 99 111 3 2 321 293 305 276 262 269 262 250 91 290 119 110 47 125 336 340 338 331
341 342 326 270 350 323 315 222 227 248 138 168 177 199 175 167 141 178 151 133 247 220 171 180 126 146 341 299 180 293 295 315 233 204 319 128 273 52 77 113 16 338 326 339 337
337 337 303 234 288 306 216 216 247 62 182 110 166 178 209 183 167 176 212 164 83 309 166 299 173 352 9 355 339 7 337 99 264 327 324 239 235 104 59 98 288 325 341 337 338
336 328 262 218 265 231 236 218 298 195 159 167 173 212 182 184 261 210 233 148 85 18 314 265 158 128 16 313 282 100 36 14 240 244 266 174 156 159 119 186 333 337 336 337 340
330 309 234 327 196 232 234 246 220 178 151 190 221 225 208 180 220 215 183 146 145 55 352 85 257 186 84 220 101 322 106 215 119 293 295 286 311 278 348 346 348 337 334 336 337
314 291 94 337 199 225 234 229 196 176 176 208 209 190 217 190 236 214 176 137 204 146 339 349 284 144 224 209 210 176 183 251 290 297 288 302 306 63 341 347 337 328 339 336 338
310 267 32 164 222 226 232 206 219 164 182 158 208 206 202 192 203 222 202 204 170 152 283 78 302 272 315 119 269 267 237 255 251 236 211 272 282 96 342 324 333 334 338 338 337
310 285 252 261 236 217 191 210 217 179 186 181 183 196 189 193 205 222 200 131 170 215 215 149 202 273 178 182 189 239 217 245 273 272 264 247 262 355 326 321 340 338 337 330 336
292 286 174 199 343 295 214 217 197 201 191 186 161 172 186 197 205 186 199 177 208 234 82 233 244 240 254 333 334 223 239 237 248 273 263 265 270 299 323 341 339 333 331 334 334
251 38 8 285 141 278 238 330 214 181 209 192 191 210 195 203 201 215 207 186 205 153 212 221 246 237 256 269 261 261 264 254 255 251 269 294 308 311 339 339 321 333 335 333 335
310 335 335 287 297 271 185 203 227 177 203 199 229 203 204 222 224 203 238 220 256 168 209 205 251 265 263 251 246 262 251 253 266 257 265 273 275 350 337 328 334 333 331 328 333
338 258 283 251 249 253 231 237 212 208 196 282 234 198 212 227 243 302 288 281 260 242 209 220 256 248 272 238 259 259 254 247 240 239 270 289 330 317 330 336 334 324 328 338 331